Wind_Speed
10 9 7 4 6 8 9 8 6 7 10 7 6 8 10 11 12 13 13 14 13 14 15 15 15 15 14 14 14 13 13 12 10 9 9 8 7 7 7 7 7 7 7 7
12 10 9 8 11 11 10 9 7 7 11 8 6 8 10 11 12 14 14 14 14 15 15 15 15 15 14 14 14 14 14 13 11 10 9 8 8 8 8 7 6 7 7 7
14 11 12 12 12 11 10 8 8 9 11 7 7 9 12 14 13 14 14 14 14 15 15 15 14 14 14 14 14 15 13 13 12 10 8 8 8 8 8 7 7 7 6 7
16 15 15 14 13 11 9 9 10 10 9 6 7 9 14 16 14 13 14 14 15 16 15 15 14 14 14 14 14 14 13 11 10 10 8 8 8 8 7 7 6 6 7 7
18 17 17 16 14 13 12 12 11 10 9 7 6 9 12 15 14 12 13 13 15 16 16 15 14 14 14 14 14 13 13 11 10 9 8 8 8 7 7 6 6 6 7 7
20 19 19 17 16 15 14 13 10 8 8 9 8 9 11 14 14 14 14 14 15 16 15 14 14 15 15 14 14 14 13 12 10 9 9 8 8 7 7 7 6 6 7 7
23 21 21 19 17 16 15 13 10 9 10 10 9 10 13 15 16 16 16 16 15 14 14 13 14 15 14 14 13 13 12 12 11 10 9 8 8 7 7 7 7 7 7 8
24 23 22 21 19 17 16 14 11 9 9 11 9 9 13 17 17 16 16 14 14 14 14 14 14 14 13 13 13 13 13 12 12 11 10 10 9 8 8 7 8 8 8 8
20 19 20 22 21 19 17 16 13 13 13 14 13 11 15 18 16 15 14 14 14 14 14 13 13 13 13 13 13 13 13 13 13 11 10 10 10 9 8 8 8 9 9 10
24 20 17 22 23 22 20 17 16 17 16 15 13 14 16 17 15 15 15 15 14 14 13 13 13 13 12 13 13 13 12 12 12 11 10 10 9 8 8 8 9 9 10 11
28 26 21 22 24 21 21 21 19 18 17 15 14 16 16 18 15 15 16 15 14 15 14 12 12 13 13 13 13 13 12 12 12 11 10 10 9 9 9 9 10 10 11 12
30 29 26 24 24 22 21 21 21 21 19 18 16 17 17 16 17 16 17 16 14 15 14 14 13 13 13 14 13 13 12 12 12 11 10 10 9 9 9 10 11 11 11 12
31 31 29 25 23 24 22 22 21 21 19 18 15 17 20 19 18 19 19 17 14 15 15 14 13 14 14 14 14 14 13 12 12 12 11 11 10 10 10 10 11 11 12 12
32 32 31 26 22 21 22 21 22 22 21 19 18 18 20 19 19 20 19 17 17 16 15 15 14 15 15 15 15 14 13 13 13 12 11 11 11 11 11 12 12 12 13 14
33 33 32 30 25 19 19 20 21 23 23 22 19 18 19 19 21 21 19 18 18 17 16 15 15 15 16 16 15 14 14 14 14 13 13 12 12 13 13 13 13 13 14 14
35 34 33 32 30 24 21 19 19 20 22 23 22 20 21 21 23 22 21 20 18 18 17 16 16 15 16 16 16 15 14 14 14 14 14 13 13 14 14 13 13 13 14 14
36 34 33 31 29 29 28 23 21 21 21 21 21 23 23 24 25 23 23 21 20 19 18 17 16 16 16 16 16 16 16 16 15 15 15 15 15 15 14 14 14 14 15 15
35 35 33 31 28 28 27 24 23 22 21 22 24 24 24 26 26 24 23 23 21 20 18 17 17 17 17 17 17 17 16 16 16 17 17 16 16 16 16 16 16 16 16 17
34 34 33 31 28 26 23 24 24 24 25 25 25 25 26 26 26 26 25 24 22 21 20 19 18 18 18 18 17 17 17 17 18 18 18 18 18 18 17 17 17 18 18 19
35 35 34 33 30 26 26 25 25 27 29 29 29 28 27 27 27 27 26 24 22 21 21 20 20 19 19 19 19 19 18 18 19 19 19 19 19 19 19 19 19 19 20 20
36 36 36 35 33 30 28 28 28 29 32 31 30 30 30 30 30 28 27 25 24 23 23 22 22 21 21 21 21 20 20 20 20 20 20 20 20 20 21 21 21 22 22 22
34 36 36 36 36 34 34 33 31 32 30 29 30 30 30 30 29 29 28 27 25 24 24 24 24 23 23 23 23 22 22 22 22 22 22 23 23 23 23 24 24 24 24 24
34 34 35 36 38 39 37 36 35 35 34 33 33 32 32 31 30 30 29 28 27 27 27 26 25 25 25 25 24 24 24 24 25 25 25 25 25 25 25 26 26 26 26 26
35 36 37 36 38 40 40 39 39 38 37 36 35 34 34 33 32 31 31 30 30 29 29 29 28 28 28 27 27 27 27 27 28 27 27 27 27 27 28 28 27 28 28 28
40 39 39 39 39 40 42 41 40 38 38 37 37 36 36 34 34 33 33 32 32 31 31 30 30 30 30 30 30 29 29 30 30 30 29 29 29 30 30 30 29 30 30 30
40 40 41 42 42 42 42 42 41 39 39 38 38 38 37 36 35 35 34 33 33 33 32 32 31 32 31 31 31 31 31 31 31 31 31 31 31 31 32 32 32 32 32 32
Wind_Direction
218 218 208 210 243 233 217 210 226 255 269 278 287 291 301 314 319 322 326 327 332 339 342 345 345 347 348 347 342 341 342 339 335 325 313 305 299 295 293 284 272 274 272 263
223 225 220 217 233 237 228 223 236 264 277 281 287 291 292 302 314 316 321 323 326 332 337 340 342 343 344 344 342 337 335 333 328 325 318 306 292 288 291 284 275 271 267 261
224 229 233 230 237 237 239 238 245 254 267 292 312 314 302 302 309 313 321 326 326 328 332 335 338 341 341 339 339 336 332 329 324 320 314 309 297 291 286 283 277 272 266 259
228 231 239 236 238 240 246 256 253 254 263 278 277 287 289 300 305 315 321 323 324 324 330 331 336 339 339 337 336 334 331 327 324 325 320 308 302 298 294 289 282 275 271 264
232 232 240 242 240 241 237 244 250 257 263 262 262 274 284 295 299 307 311 318 320 322 327 328 331 332 333 333 331 330 331 328 323 321 319 308 301 299 297 294 285 278 274 264
231 238 241 242 242 242 243 246 251 260 269 276 273 264 271 276 282 297 307 315 317 319 323 324 324 324 324 327 328 328 328 328 323 318 317 309 300 298 295 293 294 281 274 269
235 238 243 242 241 245 245 245 252 273 283 279 269 260 262 273 285 292 300 307 313 315 318 321 321 320 321 323 324 326 325 324 320 314 309 306 301 297 295 292 290 284 278 272
240 240 244 245 242 240 245 240 236 247 278 286 282 255 262 278 288 291 296 304 310 312 317 321 321 322 322 322 323 323 323 321 318 311 302 299 297 295 294 291 288 284 283 282
233 250 251 248 242 235 238 241 238 247 258 276 280 272 268 279 294 298 299 305 309 311 316 320 322 322 321 320 321 321 320 320 319 313 306 300 294 291 289 290 290 285 285 286
221 224 235 248 243 236 232 235 242 241 247 254 267 269 265 269 288 299 303 306 308 310 314 319 321 322 322 322 322 321 320 323 322 318 311 303 300 296 297 297 294 288 287 289
221 223 224 239 246 242 237 233 231 236 238 247 262 269 271 276 280 294 300 301 305 307 309 316 320 322 323 324 324 322 318 316 321 318 312 306 301 295 294 295 294 293 292 290
224 224 223 232 249 246 240 241 237 236 238 238 250 272 273 277 281 285 291 294 301 302 305 307 314 316 318 320 322 322 322 321 320 319 316 315 311 303 297 295 294 291 294 295
225 223 223 223 237 249 242 238 239 239 239 236 244 259 265 267 271 279 284 290 296 299 299 303 309 309 312 316 318 316 316 318 319 318 318 317 316 312 307 302 299 295 294 296
224 225 223 223 229 243 251 243 236 234 236 240 238 252 267 276 275 278 283 289 294 295 296 297 300 304 308 313 315 316 315 315 316 316 313 313 315 313 309 304 301 298 295 293
224 225 225 219 216 225 243 248 241 236 231 231 239 246 253 262 267 271 279 287 290 291 291 290 293 299 303 307 309 311 312 314 312 312 309 308 309 311 309 307 303 301 300 295
225 224 223 221 216 218 229 234 239 242 239 233 234 243 252 256 262 270 277 283 286 285 285 286 289 294 298 301 303 305 306 309 310 309 308 305 307 311 311 309 306 304 302 301
224 225 226 225 222 223 228 229 231 234 238 236 238 241 246 254 260 263 271 277 279 280 282 281 284 288 293 298 299 298 301 303 305 307 308 305 306 309 310 311 310 308 306 302
227 226 225 224 221 226 232 232 234 236 235 235 236 238 242 249 256 262 267 273 275 275 278 279 280 282 288 295 296 295 296 300 302 304 305 304 303 304 307 310 308 305 305 305
228 227 225 224 225 228 229 229 226 229 232 232 233 236 239 246 254 260 262 266 270 271 273 274 276 279 284 290 291 293 295 297 299 302 303 302 302 304 306 307 307 304 303 303
229 228 225 223 222 224 227 227 227 227 232 234 234 237 241 247 252 257 262 265 268 268 272 274 277 278 280 284 288 288 291 292 295 298 300 300 301 303 306 307 307 306 304 303
229 229 227 224 224 228 228 227 223 224 231 235 237 239 242 247 252 259 264 265 267 267 270 272 275 277 278 280 283 285 287 289 292 295 298 300 300 301 303 304 306 307 306 304
232 232 230 227 225 228 228 230 227 228 232 237 240 243 247 251 254 257 261 262 263 266 268 270 273 274 275 276 278 280 283 286 289 292 294 296 297 298 299 300 301 303 303 302
227 229 230 229 228 229 229 231 233 236 238 241 243 247 250 252 254 256 259 260 263 265 267 268 270 272 273 274 276 277 280 282 286 289 291 293 294 295 295 297 298 298 300 300
226 229 230 230 232 232 231 233 236 237 240 243 246 249 252 253 255 257 258 261 263 265 266 267 268 271 271 273 274 277 279 281 284 286 289 290 290 291 294 295 295 295 296 297
226 230 230 231 234 235 235 237 239 240 242 244 247 249 251 254 256 257 259 260 262 263 265 265 267 269 271 272 274 275 278 279 281 284 287 289 289 290 291 292 293 294 294 295
228 231 231 231 234 237 239 240 242 244 245 247 249 250 252 253 255 256 257 259 260 262 262 263 265 268 268 270 272 275 277 279 281 283 287 290 290 289 289 290 291 291 292 292
Height
5920 5923 5924 5927 5930 5931 5932 5934 5936 5937 5935 5934 5934 5934 5932 5930 5928 5925 5923 5921 5919 5917 5915 5913 5911 5909 5908 5906 5904 5902 5901 5900 5899 5898 5898 5897 5898 5898 5898 5898 5898 5898 5898 5899
5919 5921 5923 5925 5927 5928 5929 5932 5934 5935 5933 5932 5932 5932 5931 5929 5927 5925 5922 5920 5918 5916 5915 5912 5911 5909 5907 5905 5904 5902 5900 5899 5898 5897 5897 5896 5896 5896 5896 5896 5896 5896 5897 5897
5916 5921 5921 5923 5924 5926 5927 5930 5932 5933 5932 5931 5931 5931 5929 5927 5926 5924 5921 5919 5917 5915 5914 5912 5910 5908 5906 5905 5903 5901 5899 5898 5896 5896 5895 5895 5895 5895 5895 5895 5895 5895 5895 5896
5913 5917 5918 5920 5922 5923 5925 5928 5928 5929 5929 5930 5932 5932 5929 5926 5923 5922 5920 5918 5916 5914 5912 5910 5909 5907 5905 5903 5902 5900 5898 5897 5895 5895 5894 5894 5893 5893 5893 5894 5894 5894 5894 5895
5910 5913 5915 5917 5919 5921 5923 5924 5925 5926 5926 5927 5928 5929 5928 5924 5922 5921 5918 5917 5915 5913 5911 5909 5907 5906 5904 5902 5901 5899 5897 5895 5895 5894 5893 5892 5893 5892 5892 5892 5893 5893 5893 5893
5907 5910 5911 5914 5916 5917 5919 5921 5922 5923 5924 5925 5926 5927 5927 5923 5920 5919 5916 5916 5914 5912 5910 5908 5906 5904 5903 5901 5899 5898 5896 5895 5894 5893 5892 5891 5891 5891 5891 5891 5891 5891 5892 5892
5902 5905 5907 5910 5912 5914 5916 5919 5920 5921 5922 5923 5923 5924 5924 5920 5919 5917 5915 5914 5912 5910 5908 5906 5905 5902 5901 5899 5898 5896 5895 5894 5892 5892 5891 5890 5890 5890 5889 5890 5890 5890 5890 5891
5898 5901 5904 5906 5909 5911 5913 5916 5918 5921 5922 5919 5919 5920 5920 5918 5916 5915 5913 5912 5910 5908 5907 5905 5903 5901 5899 5897 5896 5895 5894 5892 5891 5890 5889 5889 5888 5888 5888 5888 5888 5889 5889 5889
5896 5899 5900 5901 5904 5907 5909 5912 5915 5917 5919 5920 5918 5918 5916 5914 5913 5912 5910 5909 5908 5906 5905 5903 5901 5899 5897 5896 5894 5893 5892 5891 5890 5888 5888 5887 5886 5886 5885 5886 5887 5887 5887 5887
5890 5894 5898 5898 5899 5902 5906 5909 5912 5913 5915 5916 5918 5915 5912 5909 5910 5909 5908 5907 5906 5904 5902 5901 5899 5897 5896 5895 5893 5892 5890 5889 5888 5887 5886 5886 5885 5885 5884 5885 5885 5885 5885 5885
5884 5888 5893 5894 5894 5898 5901 5904 5906 5909 5911 5913 5914 5913 5908 5907 5906 5907 5905 5904 5903 5901 5899 5898 5897 5896 5895 5894 5892 5891 5889 5888 5887 5886 5885 5885 5884 5883 5883 5883 5883 5883 5883 5882
5877 5881 5886 5890 5891 5893 5896 5899 5902 5904 5906 5908 5910 5912 5904 5904 5904 5903 5902 5900 5900 5899 5897 5896 5896 5895 5894 5893 5891 5890 5888 5887 5886 5885 5885 5884 5883 5882 5882 5881 5881 5880 5880 5880
5870 5875 5879 5884 5888 5889 5891 5894 5896 5899 5901 5903 5907 5907 5901 5902 5900 5899 5899 5897 5896 5897 5896 5895 5894 5894 5893 5891 5890 5889 5888 5887 5886 5884 5883 5883 5882 5881 5880 5879 5878 5878 5877 5877
5864 5867 5873 5879 5883 5885 5886 5888 5891 5894 5897 5899 5902 5902 5899 5898 5897 5895 5894 5895 5895 5895 5894 5893 5893 5892 5891 5890 5889 5887 5886 5885 5884 5883 5882 5881 5880 5879 5878 5877 5876 5875 5875 5874
5856 5861 5866 5871 5876 5880 5882 5883 5886 5889 5891 5895 5897 5897 5895 5894 5893 5891 5891 5892 5893 5892 5891 5891 5891 5890 5889 5888 5887 5885 5884 5883 5882 5881 5880 5879 5878 5877 5875 5874 5873 5872 5872 5871
5849 5854 5859 5864 5869 5873 5877 5879 5882 5884 5886 5889 5891 5892 5891 5889 5889 5888 5888 5890 5890 5889 5889 5888 5888 5887 5886 5885 5884 5883 5882 5881 5880 5879 5878 5877 5876 5875 5873 5871 5870 5870 5869 5868
5842 5848 5853 5858 5863 5867 5870 5874 5877 5880 5881 5884 5886 5887 5886 5885 5885 5885 5885 5886 5886 5886 5885 5885 5885 5885 5884 5882 5881 5880 5879 5878 5877 5876 5875 5874 5873 5872 5870 5869 5868 5867 5866 5865
5837 5841 5846 5852 5857 5860 5866 5870 5872 5874 5876 5877 5879 5880 5881 5880 5880 5881 5881 5881 5882 5881 5881 5881 5881 5881 5880 5879 5878 5877 5876 5875 5875 5874 5873 5872 5871 5870 5868 5867 5865 5864 5863 5862
5829 5835 5840 5845 5850 5854 5860 5862 5865 5867 5868 5870 5872 5873 5874 5874 5875 5876 5876 5877 5877 5877 5877 5876 5877 5877 5877 5876 5874 5874 5873 5873 5872 5871 5870 5869 5868 5866 5865 5864 5862 5861 5860 5858
5822 5827 5834 5838 5843 5848 5852 5854 5856 5860 5861 5862 5864 5867 5868 5869 5870 5870 5871 5872 5873 5873 5872 5872 5872 5873 5873 5872 5871 5870 5870 5869 5869 5868 5867 5865 5864 5863 5862 5860 5859 5857 5856 5854
5815 5819 5825 5830 5835 5839 5843 5844 5847 5852 5851 5854 5857 5860 5861 5863 5864 5865 5865 5866 5868 5868 5868 5868 5868 5869 5868 5868 5868 5867 5866 5866 5865 5864 5863 5862 5860 5859 5858 5857 5855 5853 5852 5850
5808 5813 5818 5823 5827 5832 5834 5835 5838 5840 5843 5847 5850 5852 5854 5856 5858 5859 5860 5860 5861 5863 5863 5863 5863 5863 5863 5863 5862 5862 5862 5861 5860 5859 5858 5857 5856 5855 5853 5852 5850 5849 5847 5845
5800 5805 5809 5814 5819 5821 5824 5827 5830 5833 5837 5840 5843 5845 5848 5850 5852 5853 5854 5853 5855 5856 5857 5857 5857 5857 5857 5857 5857 5856 5856 5856 5855 5854 5853 5852 5851 5849 5848 5846 5845 5843 5841 5839
5792 5796 5800 5804 5807 5811 5815 5818 5821 5825 5829 5833 5836 5838 5840 5842 5844 5846 5847 5848 5849 5850 5851 5851 5851 5851 5851 5851 5850 5850 5850 5850 5849 5848 5847 5846 5845 5843 5842 5840 5839 5837 5835 5833
5783 5787 5792 5795 5798 5802 5805 5809 5813 5817 5821 5825 5828 5830 5832 5835 5837 5838 5839 5841 5842 5843 5844 5844 5844 5844 5844 5844 5844 5843 5843 5843 5842 5841 5840 5839 5838 5836 5835 5833 5831 5830 5828 5826
5773 5777 5782 5785 5789 5793 5796 5801 5805 5809 5813 5816 5819 5822 5824 5826 5828 5829 5831 5833 5834 5835 5836 5836 5837 5836 5836 5835 5836 5836 5836 5835 5835 5834 5833 5832 5830 5829 5827 5825 5823 5821 5820 5818